This demonstration page uses our WeatherBlox Daily Observations layout. Learn more.

Left ArrowRight Arrow

38.88101, -77.10428

Hourly Observations for January 7, 2021

Temp ( °F °C ) Dew Point ( °F °C ) Humidity (%) Winds ( mph kmh ) Pressure ( in mb ) Visibility ( mi km ) Precip ( " mm )
12:52 am 00:52 Mostly Cloudy 38 3.3 27 -2.8 65 65 NW 10 17 30.17 1022 10 16 0.00 0.00
1:52 am 01:52 Mostly Cloudy 39 3.9 26 -3.3 60 60 NNW 20 31 30.18 1022 10 16 0.00 0.00
2:52 am 02:52 Partly Cloudy 36 2.2 26 -3.3 67 67 NNW 13 20 30.19 1022 10 16 0.00 0.00
3:52 am 03:52 Mostly Clear 35 1.7 26 -3.3 70 70 NNW 13 20 30.17 1022 10 16 0.00 0.00
4:52 am 04:52 Mostly Clear 35 1.7 26 -3.3 70 70 NNW 9 15 30.17 1022 10 16 0.00 0.00
5:52 am 05:52 Clear 34 1.1 26 -3.3 73 73 NNW 9 15 30.19 1022 10 16 0.00 0.00
6:52 am 06:52 Mostly Clear 34 1.1 26 -3.3 73 73 NNW 9 15 30.21 1023 10 16 0.00 0.00
7:52 am 07:52 Sunny 34 1.1 26 -3.3 73 73 NNW 8 13 30.21 1023 10 16 0.00 0.00
8:52 am 08:52 Sunny 38 3.3 27 -2.8 65 65 NNW 10 17 30.23 1024 10 16 0.00 0.00
9:52 am 09:52 Sunny 40 4.4 28 -2.2 63 63 NNW 12 19 30.23 1024 10 16 0.00 0.00
10:52 am 10:52 Sunny 42 5.6 27 -2.8 55 55 NNW 16 26 30.22 1023 10 16 0.00 0.00
11:52 am 11:52 Mostly Sunny 44 6.7 27 -2.8 51 51 NW 10 17 30.19 1022 10 16 0.00 0.00
12:52 pm 12:52 Mostly Sunny 46 7.8 28 -2.2 50 50 NNW 15 24 30.17 1022 10 16 0.00 0.00
1:52 pm 13:52 Partly Cloudy 47 8.3 26 -3.3 44 44 NNW 12 19 30.15 1021 10 16 0.00 0.00
2:52 pm 14:52 Partly Cloudy 47 8.3 26 -3.3 44 44 NNW 12 19 30.14 1021 10 16 0.00 0.00
3:52 pm 15:52 Partly Cloudy 47 8.3 26 -3.3 44 44 NW 9 15 30.15 1021 10 16 0.00 0.00
4:52 pm 16:52 Mostly Cloudy 44 6.7 26 -3.3 49 49 NW 9 15 30.15 1021 10 16 0.00 0.00
5:52 pm 17:52 Mostly Cloudy 43 6.1 25 -3.9 49 49 NW 8 13 30.16 1021 10 16 0.00 0.00
6:52 pm 18:52 Cloudy 42 5.6 25 -3.9 51 51 NW 9 15 30.16 1021 10 16 0.00 0.00
7:52 pm 19:52 Mostly Cloudy 41 5 25 -3.9 53 53 NW 7 11 30.17 1022 10 16 0.00 0.00
8:52 pm 20:52 Mostly Cloudy 39 3.9 25 -3.9 57 57 NW 7 11 30.16 1021 10 16 0.00 0.00
9:52 pm 21:52 Mostly Cloudy 38 3.3 25 -3.9 60 60 NNW 7 11 30.15 1021 10 16 0.00 0.00
10:52 pm 22:52 Mostly Cloudy 36 2.2 25 -3.9 64 64 NNW 7 11 30.15 1021 10 16 0.00 0.00
11:52 pm 23:52 Mostly Cloudy 36 2.2 24 -4.4 62 62 NNW 8 13 30.14 1021 10 16 0.00 0.00

Powered by AerisWeather